This is the latest recevied weather packets stored in our database for station/object F6DEV-13. If no packets are shown the sender has not sent any weather packets the latest 10 day(s).
| Time | Temp. | Humidity | Pressure | Rain* | Wind** | Luminosity | Snow |
|---|---|---|---|---|---|---|---|
| 1777041259 | 23.33° C | 44% | 1014 hPa | 0 mm | - | - | - |
| 1777041219 | 23.33° C | 44% | 1014 hPa | 0 mm | - | - | - |
| 1777040960 | 23.33° C | 47% | 1014 hPa | 0 mm | - | - | - |
| 1777040889 | 23.33° C | 47% | 1014 hPa | 0 mm | - | - | - |
| 1777040679 | 23.33° C | 47% | 1014 hPa | 0 mm | - | - | - |
| 1777040559 | 23.33° C | 47% | 1014 hPa | 0 mm | - | - | - |
| 1777040296 | 23.33° C | 45% | 1014 hPa | 0 mm | - | - | - |
| 1777040259 | 23.33° C | 45% | 1014 hPa | 0 mm | - | - | - |
| 1777039993 | 23.33° C | 47% | 1014 hPa | 0 mm | - | - | - |
| 1777039959 | 23.33° C | 47% | 1014 hPa | 0 mm | - | - | - |
| 1777039629 | 22.78° C | 47% | 1014 hPa | 0 mm | - | - | - |
| 1777039329 | 22.22° C | 46% | 1014 hPa | 0 mm | - | - | - |
| 1777039063 | 22.78° C | 48% | 1014 hPa | 0 mm | - | - | - |
| 1777039029 | 22.78° C | 48% | 1014 hPa | 0 mm | - | - | - |
| 1777038729 | 22.78° C | 45% | 1014 hPa | 0 mm | - | - | - |
| 1777038429 | 23.33° C | 44% | 1014 hPa | 0 mm | - | - | - |
| 1777038155 | 23.89° C | 43% | 1014 hPa | 0 mm | - | - | - |
| 1777038123 | 23.89° C | 43% | 1014 hPa | 0 mm | - | - | - |
| 1777038099 | 23.89° C | 43% | 1014 hPa | 0 mm | - | - | - |
| 1777037799 | 23.33° C | 46% | 1015 hPa | 0 mm | - | - | - |
| 1777037469 | 22.78° C | 45% | 1015 hPa | 0 mm | - | - | - |
| 1777037169 | 22.78° C | 45% | 1015 hPa | 0 mm | - | - | - |
| 1777036878 | 23.89° C | 44% | 1015 hPa | 0 mm | - | - | - |
| 1777036839 | 23.89° C | 44% | 1015 hPa | 0 mm | - | - | - |
| 1777036509 | 24.44° C | 44% | 1015 hPa | 0 mm | - | - | - |
* Rain latest hour (hover to see other rain measurements)
** Current wind speed in m/s (hover to see current wind gust speed)